Location: Casilda
(33.0440°S, 61.1680°W)
Time: 16:06:41
(UTC-03:00)

ISS - Pass Details

Date: 08 December 2017
Orbit: 402 x 407 km, 51.6° (Epoch: 11 December)

Event Time Altitude Azimuth Distance (km) Brightness Sun altitude
Exits shadow 03:27:24 26° 197° (SSW) 850 -1.9 -23.6°
Drops below altitude 10° 03:29:43 10° 156° (SSE) 1,482 0.0 -23.3°
Sets 03:32:00 0° 143° (SE) 2,349 1.5 -23.0°
